Location: Carrières
(48.9495°N, 2.0407°E)
Time: 21:14:32
(UTC+00:00)

Transit 2A - Pass Details

Date: 21 April 2024
Orbit: 594 x 957 km, 66.7° (Epoch: 18 May)

Event Time Altitude Azimuth Distance (km) Brightness Sun altitude
Rises 14:36:06 0° 323° (NW) 3,237 9.3 39.8°
Reaches altitude 10° 14:38:24 10° 321° (NW) 2,361 8.7 39.5°
Maximum altitude 14:43:51 73° 238° (WSW) 888 7.5 38.7°
Drops below altitude 10° 14:49:50 10° 155° (SSE) 2,577 8.9 37.9°
Sets 14:52:26 0° 153° (SSE) 3,554 9.5 37.5°
